Theta_e
327 330 329 327 325 322 321 321 320 320 321 322 323 323 322 322 322 323 323 323 323 323 323 323 324 323 323 322 322 322 323 324 323 322 321 321 321 320 319 317 316 313
327 330 329 327 324 321 321 321 320 321 321 322 322 321 321 320 321 321 321 320 320 321 322 322 322 322 322 321 321 321 321 320 318 318 317 317 317 317 316 315 314 313
329 330 328 327 324 322 322 322 322 323 323 322 322 320 320 319 320 320 319 318 318 318 319 320 320 320 319 319 318 317 317 317 316 316 315 315 315 315 315 315 315 315
330 329 328 328 324 321 321 321 322 323 322 321 320 319 319 318 318 319 318 316 316 316 317 317 317 316 315 315 315 314 314 314 314 314 314 314 314 314 315 316 316 316
330 329 329 327 322 320 319 317 318 318 320 321 320 318 317 316 315 315 315 314 313 314 315 315 315 314 313 313 312 312 312 312 312 312 313 314 314 315 316 317 317 317
329 329 328 324 320 319 318 318 317 317 319 321 319 317 317 315 314 314 314 313 312 312 313 313 313 313 312 312 311 311 311 311 312 312 312 313 314 315 316 317 317 316
329 328 326 323 320 319 320 319 318 318 318 319 318 317 316 315 314 314 313 312 311 311 312 312 313 313 312 312 312 312 312 312 312 312 313 314 315 315 315 316 315 315
329 327 326 324 322 321 321 321 321 321 319 318 318 318 316 314 315 315 314 313 312 312 311 311 312 312 312 313 313 313 313 314 313 313 313 314 314 315 315 315 314 314
327 325 324 324 324 322 321 322 324 323 321 318 317 317 316 315 315 315 315 314 314 313 312 311 312 313 313 313 313 314 314 315 314 314 314 314 313 313 314 315 314 314
326 324 323 323 324 322 322 323 324 323 322 319 317 317 316 316 315 314 315 315 315 315 314 312 312 314 314 314 314 314 314 315 315 315 315 315 314 313 313 314 315 316
326 325 323 323 323 322 321 324 324 322 322 320 318 317 316 317 316 314 314 315 315 315 315 315 314 314 315 316 316 315 316 316 316 316 316 317 316 315 315 316 316 317
326 325 324 324 323 323 322 324 323 322 322 321 320 318 317 318 317 315 315 315 314 314 315 315 315 315 315 316 317 317 317 317 317 318 318 318 318 317 317 317 318 318
326 326 325 324 324 323 323 324 324 322 321 321 320 320 319 319 317 317 316 315 314 314 314 314 315 315 315 315 315 317 318 318 319 319 319 319 319 319 318 318 319 318
327 326 326 325 324 324 324 324 324 322 321 321 320 321 321 320 318 317 317 316 315 314 314 314 315 314 315 316 316 317 319 320 321 321 321 321 321 320 320 320 320 319
326 326 326 325 325 325 325 325 324 323 322 322 322 322 322 322 320 319 318 317 316 315 315 315 314 315 316 316 317 319 320 321 322 322 322 322 322 321 322 322 321 320
325 326 327 326 325 325 325 325 324 323 323 322 322 323 322 322 321 320 320 318 317 317 316 316 316 316 316 317 318 319 320 321 321 321 320 319 320 320 321 321 321 320
326 326 326 326 325 325 325 325 324 324 324 324 323 323 323 323 321 321 321 320 318 318 318 318 319 319 318 318 319 320 319 320 321 319 317 316 316 317 318 318 319 318
325 325 325 325 325 325 325 325 325 325 325 324 324 324 323 323 322 322 322 322 320 320 320 321 322 322 320 319 318 318 318 318 319 317 315 315 314 315 317 317 317 318
323 324 324 324 324 324 324 324 324 324 324 324 324 323 322 322 322 322 322 322 322 321 321 323 323 322 320 317 316 316 315 316 317 317 316 315 315 316 318 318 317 318
321 322 322 323 323 323 323 323 322 323 323 323 323 322 322 322 323 322 322 322 322 322 323 323 323 321 318 315 315 315 315 315 316 317 318 316 316 318 318 318 318 317
316 317 319 320 322 322 322 322 322 322 323 323 323 323 323 322 321 320 320 321 322 321 322 322 321 319 317 315 315 315 315 314 314 318 320 318 316 318 318 317 317 315
312 313 314 315 317 320 321 321 322 322 322 323 323 323 323 323 321 319 319 320 320 320 319 319 320 319 318 316 315 315 315 314 314 318 320 319 317 317 316 315 315 314
310 311 312 312 313 315 317 318 320 320 321 322 323 323 323 323 322 320 320 320 320 319 319 319 319 319 319 317 317 317 316 315 316 318 319 318 316 314 314 313 312 313
309 309 310 311 312 312 314 315 316 317 318 319 320 321 323 323 323 322 322 322 321 320 319 319 319 320 320 318 319 319 317 316 316 317 317 316 313 312 312 310 309 312
307 308 309 310 311 311 312 313 314 315 316 317 318 319 320 321 322 322 322 322 321 321 320 320 320 320 319 318 318 318 317 316 316 316 315 314 312 311 310 308 308 310
305 306 307 309 310 310 310 311 312 313 314 315 316 317 318 319 320 321 322 321 321 321 320 320 320 320 318 317 317 316 316 315 316 315 314 312 311 309 308 307 307 308
Wind_Speed
12 10 9 8 7 7 6 5 5 4 3 4 5 5 5 4 3 3 4 4 4 4 5 6 7 8 8 8 8 9 9 9 9 9 9 10 9 8 8 7 6 6
13 12 11 9 7 9 9 7 7 6 5 5 6 6 6 5 4 4 4 4 5 5 5 6 7 7 8 8 8 9 9 8 9 9 9 9 9 9 9 8 8 7
13 12 11 9 9 10 10 9 8 7 6 6 7 7 6 6 5 5 4 5 6 6 6 7 7 7 8 8 8 8 8 8 8 8 9 9 9 9 9 9 8 8
11 11 11 11 11 12 11 10 9 9 8 8 7 7 7 7 7 6 5 5 6 7 8 8 8 8 9 9 9 9 9 8 8 8 9 9 9 9 9 9 8 9
11 11 12 12 12 13 13 11 11 11 10 9 8 8 8 8 8 7 6 6 7 7 8 9 8 8 9 9 9 9 9 9 9 8 9 9 9 9 9 9 9 9
12 12 12 12 13 14 14 12 12 12 11 10 10 10 10 9 8 8 7 7 7 8 8 9 9 9 9 9 10 10 10 10 9 9 10 10 9 9 9 9 9 9
12 12 12 12 13 14 14 13 12 12 11 11 10 10 11 11 9 8 8 8 8 8 8 9 9 9 9 10 10 10 10 10 10 10 10 10 9 9 9 8 8 8
12 12 12 12 13 13 13 13 11 11 12 12 11 10 11 11 10 9 9 9 9 8 9 9 9 9 9 9 10 11 11 10 10 10 10 10 9 9 8 7 7 7
12 11 11 12 12 13 12 11 10 11 12 12 11 10 9 10 10 10 9 9 9 9 9 9 9 9 9 9 10 11 11 10 9 10 10 9 9 9 8 7 7 6
13 12 12 12 12 13 12 10 9 10 11 12 11 10 9 9 9 10 10 9 9 9 9 9 9 9 9 10 11 11 10 10 10 10 10 9 8 8 8 8 7 6
14 13 13 12 12 13 12 10 9 9 10 11 10 10 10 9 9 10 11 10 10 10 10 10 10 10 10 10 10 10 10 10 10 9 9 8 7 7 7 7 7 6
13 13 13 12 12 12 12 10 8 9 10 10 10 10 10 10 10 11 11 11 11 11 11 11 11 11 11 11 10 10 10 10 9 9 8 7 7 7 6 6 6 5
12 11 11 12 12 12 11 10 10 11 11 10 10 11 11 12 12 11 11 12 12 12 12 12 13 13 12 12 12 11 10 10 9 9 8 7 7 6 6 6 5 5
9 9 9 10 11 11 11 11 11 12 12 11 10 11 12 13 13 13 13 12 13 13 13 13 14 13 13 13 13 12 12 11 10 9 8 7 7 6 5 5 4 3
7 7 8 8 9 10 11 12 11 11 11 11 10 11 12 13 13 14 14 14 14 14 14 14 14 14 14 15 14 13 13 12 10 9 7 6 5 4 4 4 4 3
6 6 7 8 8 9 10 11 11 10 11 11 10 11 11 12 13 14 15 16 15 15 15 15 15 15 16 16 16 14 13 12 11 9 7 6 3 1 1 3 3 3
5 6 6 7 7 8 8 9 10 10 10 11 11 11 11 12 14 15 16 16 17 17 17 17 15 16 18 19 18 16 13 11 11 10 10 8 5 7 7 5 5 7
3 4 5 5 5 7 7 7 8 9 10 11 11 12 12 13 15 16 16 16 17 18 18 18 16 19 22 22 21 19 14 10 9 9 9 11 13 15 13 9 9 9
1 2 2 2 3 4 4 5 6 7 9 11 12 13 14 15 16 16 16 16 17 17 18 18 17 21 26 26 23 20 16 12 10 9 10 9 10 13 12 11 11 9
2 1 1 1 1 2 3 4 5 7 8 10 11 13 14 15 16 16 16 16 16 16 16 16 16 19 25 25 23 20 19 16 12 11 12 11 11 12 12 12 11 9
5 3 2 2 3 4 5 6 6 7 8 9 10 11 13 15 17 18 18 17 18 17 18 18 17 18 22 24 23 22 22 20 16 14 14 14 13 13 13 12 9 8
6 5 4 3 4 4 6 7 7 8 9 9 10 11 12 14 17 20 21 20 21 21 21 21 20 20 24 27 26 25 25 23 19 15 14 14 13 12 12 10 8 7
6 6 5 5 5 5 6 6 6 7 8 9 11 12 12 13 15 18 19 20 21 23 22 21 21 22 25 26 23 23 25 26 21 17 16 15 15 13 12 11 10 9
8 7 7 7 7 7 7 7 7 8 9 10 11 12 13 14 14 15 16 17 19 21 21 21 22 22 23 22 21 21 24 24 22 19 16 15 16 14 11 12 13 12
8 8 8 8 8 9 9 9 9 9 10 10 11 12 13 14 15 15 16 17 17 17 19 19 19 19 20 20 19 21 23 24 22 19 17 16 15 14 11 12 14 14
10 9 9 9 10 10 10 10 10 11 11 12 12 13 14 14 14 15 16 17 17 16 17 18 17 17 18 18 18 21 23 23 21 19 19 16 14 13 12 12 14 14
Wind_Direction
168 165 165 169 163 150 146 144 136 144 157 152 154 149 140 138 137 140 134 127 124 115 110 107 104 105 99 92 93 91 87 88 89 89 90 94 95 93 89 86 82 81
174 163 164 165 156 144 141 140 138 141 150 152 149 143 137 136 135 137 137 132 127 121 116 114 112 110 104 99 97 97 96 94 94 94 97 98 98 96 92 89 87 87
174 163 165 164 153 145 142 143 142 138 140 146 146 142 139 138 136 136 136 132 127 126 123 119 117 111 107 107 105 103 103 99 96 95 95 96 98 99 96 94 92 90
172 167 165 159 151 150 150 150 147 142 141 143 149 151 147 142 139 137 138 137 131 130 128 124 121 116 114 115 112 109 107 102 101 100 99 97 98 99 97 96 94 90
174 168 163 157 155 155 155 153 152 153 154 154 157 161 156 149 144 144 150 148 140 137 135 130 127 124 122 121 119 117 114 111 110 111 109 107 105 105 103 100 95 91
176 169 164 161 161 159 155 154 157 161 165 164 165 171 166 156 150 155 161 160 153 149 143 138 135 133 131 128 126 125 124 122 122 122 119 117 116 115 113 111 106 99
176 169 166 167 166 159 152 154 160 167 173 173 177 180 171 159 157 165 170 170 167 159 150 145 141 138 138 136 133 130 128 128 129 129 125 120 120 121 119 116 112 106
173 167 167 171 171 164 156 159 165 174 179 179 181 182 174 167 165 169 175 176 172 165 157 151 146 145 144 141 137 132 130 133 133 132 127 124 127 126 123 120 115 114
176 174 174 175 177 173 166 167 175 180 181 178 177 176 176 175 170 171 177 179 175 169 163 159 153 151 149 145 142 138 136 137 135 133 131 133 137 136 133 131 126 124
181 181 180 179 184 183 178 180 182 180 180 177 174 175 177 178 176 177 181 181 180 175 169 165 161 158 157 153 149 147 145 142 140 141 142 145 149 147 144 144 143 144
180 181 184 185 189 191 190 191 188 185 186 181 179 179 180 181 182 185 187 186 186 183 176 173 170 168 165 160 156 155 153 151 149 149 150 152 154 152 152 154 158 163
174 180 187 190 192 194 195 200 202 200 196 189 187 188 188 189 189 192 194 192 192 191 187 182 178 177 175 168 164 161 158 157 156 156 158 161 163 165 168 170 174 182
170 177 184 187 192 197 201 207 210 208 205 201 198 197 196 196 196 198 199 199 198 197 194 191 186 185 181 176 173 170 165 163 159 160 165 165 170 179 183 186 193 201
170 178 186 192 198 204 209 212 211 209 208 208 207 205 204 205 204 203 203 204 204 201 198 195 192 191 187 182 181 175 170 168 166 169 172 172 179 188 188 196 209 217
168 178 188 198 204 209 212 211 210 208 207 207 208 210 211 212 212 208 205 207 207 204 201 197 195 195 191 187 185 178 175 172 167 163 161 161 173 187 200 221 226 213
172 182 190 197 203 208 209 207 208 208 211 215 216 218 219 219 221 217 211 210 209 205 202 197 196 197 193 189 184 180 180 178 169 163 163 158 136 63 263 255 260 259
162 175 189 195 199 205 208 209 211 212 218 224 225 230 231 227 227 223 216 215 214 209 203 198 196 197 192 187 181 174 174 176 175 182 195 207 243 286 292 280 275 278
145 164 177 185 192 202 206 210 218 220 225 229 229 231 234 232 230 226 221 220 217 213 207 200 198 199 194 188 185 181 179 186 193 208 231 249 260 267 272 271 261 248
109 137 154 171 190 207 209 213 224 229 231 234 234 233 232 231 229 227 225 222 217 217 211 200 200 203 198 194 194 195 200 208 211 222 234 240 244 247 252 256 252 232
39 24 359 293 246 238 233 231 236 240 241 241 239 235 229 225 224 226 229 224 216 215 210 202 204 208 203 200 203 210 219 222 216 215 211 199 201 220 234 242 242 233
29 18 356 312 273 252 244 241 238 241 243 241 240 235 226 223 223 227 234 229 216 212 213 214 217 216 214 218 225 228 229 227 223 219 208 198 201 214 224 227 223 220
22 14 358 326 293 269 254 248 242 241 241 236 236 235 229 227 227 229 234 231 221 218 220 222 224 225 229 238 244 242 236 232 229 220 206 196 194 200 204 198 193 203
4 359 350 334 314 291 273 264 259 253 249 241 237 237 234 231 230 231 233 229 225 225 227 229 233 234 234 237 240 238 235 231 224 214 204 191 180 183 187 178 176 186
347 343 338 332 319 307 298 292 281 270 263 252 245 244 243 241 239 238 235 231 229 230 231 235 236 234 231 228 225 228 229 223 214 207 199 183 171 172 178 185 188 180
325 323 323 321 315 312 311 304 292 282 275 266 258 254 250 247 245 242 240 237 235 234 235 236 233 230 229 223 218 221 220 214 207 199 184 171 166 163 164 182 191 180
310 309 309 307 304 304 304 300 294 289 281 273 268 262 256 252 247 243 240 238 236 233 232 230 226 225 222 214 212 215 210 204 197 182 167 159 155 155 159 170 177 175